This demonstration page uses our WeatherBlox Daily Observations layout. Learn more.

Left ArrowRight Arrow

39.92423, -83.80882

Hourly Observations for June 27, 2018

Temp ( °F °C ) Dew Point ( °F °C ) Humidity (%) Winds ( mph kmh ) Pressure ( in mb ) Visibility ( mi km ) Precip ( " mm )
12:56 am 00:56 Mostly Cloudy 66 18.9 66 18.9 100 100 SSE 7 11 29.90 1013 10 16 N/A
1:11 am 01:11 Partly Cloudy 66 19 66 19 100 100 SSE 8 13 29.88 1012 10 16 N/A
1:56 am 01:56 Mostly Clear 66 18.9 66 18.9 100 100 SE 6 9 29.88 1012 10 16 N/A
2:33 am 02:33 Cloudy 66 19 66 19 100 100 S 5 7 29.88 1012 10 16 N/A
2:56 am 02:56 Cloudy 67 19.4 66 18.9 97 97 S 6 9 29.89 1012 10 16 N/A
3:56 am 03:56 Cloudy with Heavy Rain 67 19.4 66 18.9 97 97 SSW 9 15 29.88 1012 9 14 0.04 1.02
4:36 am 04:36 Cloudy 66 19 66 19 100 100 SSW 7 11 29.85 1011 10 16 N/A
4:56 am 04:56 Cloudy 67 19.4 66 18.9 97 97 SSW 8 13 29.87 1011 10 16 N/A
5:07 am 05:07 Cloudy 66 19 66 19 100 100 SW 10 17 29.85 1011 10 16 N/A
5:56 am 05:56 Cloudy 67 19.4 66 18.9 97 97 SW 9 15 29.87 1011 10 16 N/A
6:19 am 06:19 Mostly Cloudy 66 19 66 19 100 100 SW 9 15 29.85 1011 10 16 N/A
6:28 am 06:28 Cloudy 66 19 66 19 100 100 SW 9 15 29.85 1011 10 16 N/A
6:56 am 06:56 Cloudy 67 19.4 66 18.9 97 97 SW 9 15 29.88 1012 10 16 N/A
7:56 am 07:56 Cloudy 68 20 67 19.4 96 96 SW 9 15 29.88 1012 10 16 0.01 0.25
8:15 am 08:15 Cloudy 68 20 66 19 94 94 SW 13 20 29.85 1011 10 16 N/A
8:56 am 08:56 Cloudy 69 20.6 67 19.4 93 93 SW 12 19 29.87 1012 10 16 N/A
9:56 am 09:56 Cloudy 71 21.7 67 19.4 87 87 WSW 10 17 29.87 1012 10 16 N/A
10:07 am 10:07 Cloudy 72 22 66 19 83 83 WSW 16 26 29.85 1011 10 16 N/A
10:56 am 10:56 Cloudy 72 22.2 66 18.9 82 82 WSW 12 19 29.86 1011 10 16 N/A
11:56 am 11:56 Mostly Cloudy 75 23.9 68 20 79 79 SW 20 31 29.85 1011 10 16 N/A
12:56 pm 12:56 Cloudy 76 24.4 69 20.6 79 79 WSW 16 26 29.85 1011 10 16 N/A
1:56 pm 13:56 Cloudy 78 25.6 69 20.6 74 74 WSW 15 24 29.83 1010 10 16 N/A
2:07 pm 14:07 Cloudy 79 26 68 20 70 70 WSW 20 31 29.77 1008 10 16 N/A
2:56 pm 14:56 Mostly Cloudy 79 26.1 69 20.6 72 72 WSW 17 28 29.81 1010 10 16 N/A
3:56 pm 15:56 Mostly Cloudy 80 26.7 68 20 67 67 WSW 18 30 29.79 1009 10 16 N/A
4:56 pm 16:56 Cloudy 79 26.1 68 20 69 69 W 16 26 29.79 1009 10 16 N/A
5:56 pm 17:56 Mostly Cloudy 78 25.6 69 20.6 74 74 W 8 13 29.79 1009 10 16 N/A
6:56 pm 18:56 Mostly Cloudy 78 25.6 69 20.6 74 74 W 12 19 29.79 1009 10 16 N/A
7:56 pm 19:56 Cloudy 78 25.6 69 20.6 74 74 WSW 10 17 29.79 1009 10 16 N/A
8:56 pm 20:56 Mostly Cloudy 74 23.3 68 20 82 82 NW 7 11 29.81 1010 10 16 N/A
9:56 pm 21:56 Mostly Clear 72 22.2 68 20 87 87 WNW 6 9 29.83 1010 10 16 N/A
10:56 pm 22:56 Clear 69 20.6 67 19.4 93 93 W 7 11 29.85 1011 10 16 N/A
11:56 pm 23:56 Partly Cloudy 69 20.6 66 18.9 90 90 W 7 11 29.87 1011 10 16 N/A

Powered by AerisWeather